NORTHEAST SUFFOLK  -  Air Quality Alert Air Quality Alert        NORTHERN NASSAU  -  Air Quality Alert Air Quality Alert        NORTHERN QUEENS  -  Air Quality Alert Air Quality Alert        NORTHWEST SUFFOLK  -  Air Quality Alert Air Quality Alert        SOUTHEAST SUFFOLK  -  Air Quality Alert Air Quality Alert        SOUTHERN NASSAU  -  Air Quality Alert Air Quality Alert        SOUTHERN QUEENS  -  Air Quality Alert Air Quality Alert        SOUTHWEST SUFFOLK  -  Air Quality Alert Air Quality Alert      

Active alerts

Northern Queens
  Details for Northern Queens Air Quality Alert
Southern Queens
  Details for Southern Queens Air Quality Alert
Northern Nassau
  Details for Northern Nassau Air Quality Alert
Southern Nassau
  Details for Southern Nassau Air Quality Alert
Northwest Suffolk
  Details for Northwest Suffolk Air Quality Alert
Southwest Suffolk
  Details for Southwest Suffolk Air Quality Alert
Northeast Suffolk
  Details for Northeast Suffolk Air Quality Alert
Southeast Suffolk
  Details for Southeast Suffolk Air Quality Alert


WXM80 ListenWXM80 Stop

You find our weather info also at:

UK Metoffice

WeatherCloud

Weather Underground

Northeastern Weather Network

AWEKAS

Citizen Weather Observer Program (CWOP)

HAMweather, WeatherForYou, PWS Weather


Weather Underground History page Text

Daily Summary for August 20, 2017 Units:  Metric    English   Both
« Previous Day
Next Day »
Daily Weekly Monthly Yearly Custom
  High: Low: Average:
Temperature: 30.4 °C 20.8 °C 24.9 °C
Dew Point: 21.1 °C 17.2 °C 18.8 °C
Humidity: 85 % 49 % 70 %
Wind Speed: 12.4 km/h 0 km/h 2.9 km/h
Wind Gust: 20.4 km/h - -
Wind:- - West
Pressure: 1019.2 hPa 1009.7 hPa -
Precipitation: 0 mm    
Historical Graphs
 
 
Tabular Data for August 20, 2017
Time Temperature Dew Point Pressure Wind Wind Speed Wind Gust Humidity Rainfall Rate (Hourly)
00:00 23.3 °C 20.1 °C 1009.7 hPa Calm     82 % 0 mm
00:05 23.3 °C 20.1 °C 1009.7 hPa Calm     82 % 0 mm
00:10 23.2 °C 20.2 °C 1009.7 hPa Calm     83 % 0 mm
00:15 23.2 °C 20.1 °C 1009.7 hPa Calm     83 % 0 mm
00:20 23.1 °C 19.8 °C 1009.7 hPa Calm     82 % 0 mm
00:25 23.1 °C 20 °C 1009.7 hPa Calm     83 % 0 mm
00:30 23 °C 19.9 °C 1009.7 hPa WSW 1.1 km/h 3.7 km/h 83 % 0 mm
00:35 22.9 °C 19.9 °C 1009.7 hPa Calm   1.9 km/h 83 % 0 mm
00:40 22.9 °C 19.8 °C 1009.7 hPa Calm     83 % 0 mm
00:45 22.8 °C 19.8 °C 1009.7 hPa SW 0.2 km/h 1.9 km/h 83 % 0 mm
00:50 22.8 °C 19.7 °C 1010 hPa Calm   1.9 km/h 83 % 0 mm
00:55 22.8 °C 19.7 °C 1009.7 hPa Calm     83 % 0 mm
01:00 22.8 °C 19.7 °C 1009.7 hPa Calm     83 % 0 mm
01:05 22.8 °C 19.7 °C 1009.7 hPa SW 0.2 km/h 1.9 km/h 83 % 0 mm
01:07 22.8 °C 19.7 °C 1009.7 hPa SW 0.3 km/h 1.9 km/h 83 % 0 mm
01:12 22.8 °C 19.7 °C 1010 hPa West 1.9 km/h 6.4 km/h 83 % 0 mm
01:17 22.8 °C 19.8 °C 1010 hPa WSW 3.4 km/h 5.6 km/h 83 % 0 mm
01:22 22.9 °C 19.8 °C 1010 hPa WSW 2.4 km/h 5.6 km/h 83 % 0 mm
01:27 22.9 °C 19.9 °C 1010 hPa WSW 2.3 km/h 5.6 km/h 83 % 0 mm
01:32 23.1 °C 19.8 °C 1010 hPa Calm   1.9 km/h 82 % 0 mm
01:36 23.1 °C 19.8 °C 1010 hPa Calm     82 % 0 mm
01:41 23.2 °C 19.9 °C 1010 hPa SSW 0.8 km/h 1.9 km/h 82 % 0 mm
01:46 23.2 °C 19.9 °C 1010.4 hPa Calm     82 % 0 mm
01:51 23.2 °C 20 °C 1010 hPa Calm     82 % 0 mm
01:56 23.2 °C 20 °C 1010 hPa SSW 0.2 km/h 1.9 km/h 82 % 0 mm
02:01 23.2 °C 20 °C 1010.4 hPa Calm   1.9 km/h 82 % 0 mm
02:06 23.2 °C 20.2 °C 1010.4 hPa Calm   1.9 km/h 83 % 0 mm
02:11 23.2 °C 20.1 °C 1010.4 hPa Calm   1.9 km/h 83 % 0 mm
02:16 23.2 °C 20.1 °C 1010.4 hPa West 4.7 km/h 7.4 km/h 83 % 0 mm
02:21 23.1 °C 20.3 °C 1010.4 hPa WSW 1.6 km/h 5.6 km/h 84 % 0 mm
02:26 23.1 °C 20.2 °C 1010.4 hPa WSW 2.4 km/h 5.6 km/h 84 % 0 mm
02:31 23.1 °C 20.2 °C 1010.4 hPa WSW 0.2 km/h 1.9 km/h 84 % 0 mm
02:36 23.1 °C 20.2 °C 1010 hPa Calm     84 % 0 mm
02:41 23 °C 20.2 °C 1010.4 hPa Calm     84 % 0 mm
02:46 23 °C 20.2 °C 1010.4 hPa Calm     84 % 0 mm
02:51 23 °C 20.3 °C 1010.4 hPa SW 1.3 km/h 4.8 km/h 85 % 0 mm
02:56 22.9 °C 20.3 °C 1010.4 hPa West 1.9 km/h 3.7 km/h 85 % 0 mm
03:01 22.9 °C 20.3 °C 1010.4 hPa NW 1 km/h 3.2 km/h 85 % 0 mm
03:06 22.9 °C 20.3 °C 1010.7 hPa West 7.2 km/h 9.3 km/h 85 % 0 mm
03:11 22.9 °C 20.2 °C 1010.4 hPa West 3.2 km/h 6.4 km/h 85 % 0 mm
03:16 22.8 °C 19.8 °C 1010.7 hPa West 5.3 km/h 11.1 km/h 83 % 0 mm
03:21 22.8 °C 19.6 °C 1010.7 hPa NW 4 km/h 5.6 km/h 82 % 0 mm
03:26 22.8 °C 19.3 °C 1010.7 hPa West 5.3 km/h 9.3 km/h 81 % 0 mm
03:31 22.8 °C 19.3 °C 1010.7 hPa SSW 2.6 km/h 6.4 km/h 81 % 0 mm
03:36 22.7 °C 19.1 °C 1010.7 hPa WNW 6.6 km/h 9.3 km/h 80 % 0 mm
03:41 22.7 °C 18.9 °C 1010.7 hPa West 4.8 km/h 6.4 km/h 79 % 0 mm
03:46 22.7 °C 18.6 °C 1010.7 hPa West 2.3 km/h 5.6 km/h 78 % 0 mm
03:52 22.7 °C 18.6 °C 1010.7 hPa West 2.3 km/h 6.4 km/h 78 % 0 mm
03:57 22.6 °C 18.6 °C 1011.1 hPa WNW 6.8 km/h 11.1 km/h 78 % 0 mm
04:02 22.6 °C 18.3 °C 1011.1 hPa West 0.5 km/h 5.6 km/h 77 % 0 mm
04:07 22.6 °C 18.3 °C 1011.1 hPa WNW 6.4 km/h 9.3 km/h 77 % 0 mm
04:12 22.6 °C 18.3 °C 1011.1 hPa West 5 km/h 9.3 km/h 77 % 0 mm
04:17 22.5 °C 18.4 °C 1011.1 hPa WNW 6.6 km/h 13 km/h 78 % 0 mm
04:22 22.4 °C 18.2 °C 1011.4 hPa WSW 8.2 km/h 16.7 km/h 77 % 0 mm
04:27 22.4 °C 18.2 °C 1011.4 hPa WSW 5.6 km/h 11.1 km/h 77 % 0 mm
04:32 22.3 °C 18.1 °C 1011.4 hPa SW 5.5 km/h 11.1 km/h 77 % 0 mm
04:37 22.3 °C 18.3 °C 1011.4 hPa SSW 9.5 km/h 18.5 km/h 78 % 0 mm
04:42 22.3 °C 18.3 °C 1011.7 hPa NW 6.6 km/h 16.7 km/h 78 % 0 mm
04:47 22.2 °C 18.4 °C 1011.7 hPa SSW 4.8 km/h 11.1 km/h 79 % 0 mm
04:52 22.1 °C 18.1 °C 1011.7 hPa West 7.9 km/h 14.8 km/h 78 % 0 mm
04:57 22 °C 18.2 °C 1011.7 hPa SW 6.3 km/h 11.1 km/h 79 % 0 mm
05:02 21.9 °C 18.1 °C 1011.7 hPa West 4.8 km/h 9.3 km/h 79 % 0 mm
05:07 21.8 °C 18.2 °C 1011.7 hPa WNW 2.9 km/h 11.1 km/h 80 % 0 mm
05:12 21.8 °C 18.2 °C 1012.1 hPa West 3.7 km/h 6.4 km/h 80 % 0 mm
05:17 21.7 °C 18.1 °C 1012.1 hPa West 3.9 km/h 16.7 km/h 80 % 0 mm
05:22 21.6 °C 18 °C 1012.1 hPa WSW 5.5 km/h 14.8 km/h 80 % 0 mm
05:27 21.6 °C 18.2 °C 1012.1 hPa WSW 2.6 km/h 6.4 km/h 81 % 0 mm
05:32 21.6 °C 18.2 °C 1012.1 hPa WNW 3.4 km/h 9.3 km/h 81 % 0 mm
05:37 21.4 °C 18.1 °C 1012.1 hPa West 5.1 km/h 5.6 km/h 81 % 0 mm
05:42 21.4 °C 18.1 °C 1012.4 hPa NW 2.4 km/h 5.6 km/h 81 % 0 mm
05:47 21.4 °C 18 °C 1012.4 hPa WSW 3.4 km/h 7.4 km/h 81 % 0 mm
05:52 21.3 °C 17.9 °C 1012.4 hPa West 4 km/h 11.1 km/h 81 % 0 mm
05:57 21.3 °C 17.9 °C 1012.4 hPa West 5.3 km/h 11.1 km/h 81 % 0 mm
06:02 21.3 °C 17.9 °C 1012.4 hPa Calm   1.9 km/h 81 % 0 mm
06:07 21.3 °C 18.1 °C 1012.8 hPa West 1.1 km/h 5.6 km/h 82 % 0 mm
06:13 21.2 °C 18 °C 1012.8 hPa WSW 2.7 km/h 5.6 km/h 82 % 0 mm
06:18 21.2 °C 18 °C 1012.8 hPa WNW 5 km/h 11.1 km/h 82 % 0 mm
06:23 21.2 °C 17.9 °C 1013.1 hPa SW 7.2 km/h 13 km/h 82 % 0 mm
06:28 21.1 °C 17.9 °C 1013.1 hPa NW 3.4 km/h 5.6 km/h 82 % 0 mm
06:33 21.1 °C 18.1 °C 1013.1 hPa NW 3.5 km/h 9.3 km/h 83 % 0 mm
06:38 21.1 °C 18.1 °C 1013.1 hPa NW 2.6 km/h 9.3 km/h 83 % 0 mm
06:43 21.1 °C 18.2 °C 1013.1 hPa West 1.3 km/h 6.4 km/h 84 % 0 mm
06:44 21.1 °C 18.2 °C 1013.4 hPa West 1.1 km/h 9.3 km/h 84 % 0 mm
06:49 21.1 °C 18.2 °C 1013.4 hPa WNW 5.5 km/h 13 km/h 84 % 0 mm
06:54 21 °C 18.2 °C 1013.4 hPa WNW 4.3 km/h 9.3 km/h 84 % 0 mm
06:59 21 °C 18.2 °C 1013.4 hPa WNW 6 km/h 13 km/h 84 % 0 mm
07:04 21 °C 18.2 °C 1013.4 hPa West 8 km/h 16.7 km/h 84 % 0 mm
07:09 21.1 °C 18.2 °C 1013.4 hPa WNW 0.3 km/h 5.6 km/h 84 % 0 mm
07:14 21.1 °C 18.2 °C 1013.8 hPa East 2.6 km/h 11.1 km/h 84 % 0 mm
07:19 21.1 °C 18.2 °C 1013.8 hPa NW 4.2 km/h 16.7 km/h 84 % 0 mm
07:24 21.1 °C 18.1 °C 1013.8 hPa WNW 6 km/h 13 km/h 83 % 0 mm
07:29 21.1 °C 18.2 °C 1013.8 hPa West 0.8 km/h 7.4 km/h 84 % 0 mm
07:34 21.1 °C 18.2 °C 1014.1 hPa West 3.7 km/h 9.3 km/h 84 % 0 mm
07:39 21.1 °C 18.3 °C 1014.1 hPa WNW 2.4 km/h 11.1 km/h 84 % 0 mm
07:44 21.1 °C 18.1 °C 1014.1 hPa WNW 5.8 km/h 9.3 km/h 83 % 0 mm
07:49 21.1 °C 18.1 °C 1014.1 hPa WNW 5.3 km/h 9.3 km/h 83 % 0 mm
07:54 21.2 °C 18.2 °C 1014.4 hPa WNW 1.9 km/h 11.1 km/h 83 % 0 mm
07:59 21.2 °C 18.2 °C 1014.4 hPa West 3.2 km/h 11.1 km/h 83 % 0 mm
08:04 21.2 °C 18.2 °C 1014.4 hPa WNW 0.5 km/h 13 km/h 83 % 0 mm
08:09 21.2 °C 18 °C 1014.4 hPa WSW 6.6 km/h 13 km/h 82 % 0 mm
08:15 21.2 °C 18 °C 1014.4 hPa WSW 8.5 km/h 11.3 km/h 82 % 0 mm
08:20 21.3 °C 18.1 °C 1014.4 hPa WSW 3.9 km/h 11.1 km/h 82 % 0 mm
08:25 21.3 °C 18.1 °C 1014.4 hPa West 6.4 km/h 14.5 km/h 82 % 0 mm
08:30 21.3 °C 18.1 °C 1014.4 hPa NW 5.6 km/h 14.8 km/h 82 % 0 mm
08:35 21.4 °C 18 °C 1014.4 hPa West 12.4 km/h 18.5 km/h 81 % 0 mm
08:40 21.4 °C 18.2 °C 1014.4 hPa WNW 7.6 km/h 7.6 km/h 82 % 0 mm
08:45 21.5 °C 18.3 °C 1014.4 hPa WNW 1.1 km/h 5.6 km/h 82 % 0 mm
08:50 21.6 °C 18.2 °C 1014.4 hPa WNW 4.8 km/h 13 km/h 81 % 0 mm
08:51 21.6 °C 18.2 °C 1014.4 hPa WNW 4.3 km/h 11.1 km/h 81 % 0 mm
08:56 21.7 °C 18.1 °C 1014.4 hPa WSW 6 km/h 9.3 km/h 80 % 0 mm
09:01 21.8 °C 18.2 °C 1014.4 hPa West 5.5 km/h 9.3 km/h 80 % 0 mm
09:06 21.9 °C 18.3 °C 1014.8 hPa WNW 5.5 km/h 11.1 km/h 80 % 0 mm
09:11 22 °C 18.2 °C 1014.4 hPa NNW 7.6 km/h 14.5 km/h 79 % 0 mm
09:16 22.1 °C 18.3 °C 1014.8 hPa SSW 7.7 km/h 13 km/h 79 % 0 mm
09:21 22.2 °C 18.4 °C 1014.8 hPa WSW 2.4 km/h 9.3 km/h 79 % 0 mm
09:26 22.3 °C 18.3 °C 1014.4 hPa WNW 2.1 km/h 5.6 km/h 78 % 0 mm
09:31 22.4 °C 18.6 °C 1014.4 hPa WNW 2.3 km/h 7.4 km/h 79 % 0 mm
09:37 22.5 °C 18.4 °C 1014.4 hPa West 2.4 km/h 8 km/h 78 % 0 mm
09:42 22.7 °C 18.6 °C 1014.8 hPa WNW 4.7 km/h 11.1 km/h 78 % 0 mm
09:47 22.9 °C 18.8 °C 1014.8 hPa North 6.4 km/h 6.4 km/h 78 % 0 mm
09:52 23.3 °C 19.4 °C 1014.8 hPa WNW 1.9 km/h 3.7 km/h 79 % 0 mm
09:57 23.7 °C 19.2 °C 1014.8 hPa WNW 4.7 km/h 13 km/h 76 % 0 mm
10:02 24.2 °C 19.7 °C 1014.8 hPa WNW 6 km/h 11.3 km/h 76 % 0 mm
10:07 24.6 °C 19.4 °C 1015.1 hPa NNW 3.5 km/h 5.6 km/h 73 % 0 mm
10:12 24.8 °C 19.4 °C 1015.1 hPa WNW 3.5 km/h 9.3 km/h 72 % 0 mm
10:17 24.9 °C 19.1 °C 1015.1 hPa WNW 4.3 km/h 9.3 km/h 70 % 0 mm
10:22 25 °C 19.4 °C 1015.1 hPa West 1.1 km/h 5.6 km/h 71 % 0 mm
10:27 25.2 °C 19.3 °C 1014.8 hPa WNW 2.6 km/h 5.6 km/h 70 % 0 mm
10:32 25.3 °C 19.4 °C 1015.1 hPa WNW 5.1 km/h 9.7 km/h 70 % 0 mm
10:37 25.6 °C 19.9 °C 1015.1 hPa NW 5 km/h 9.3 km/h 71 % 0 mm
10:42 25.9 °C 19.6 °C 1015.1 hPa NNE 4.5 km/h 7.4 km/h 68 % 0 mm
10:47 26.3 °C 20.1 °C 1015.1 hPa WNW 3.2 km/h 7.4 km/h 69 % 0 mm
10:52 26.6 °C 20.4 °C 1015.1 hPa NNE 1 km/h 1.9 km/h 69 % 0 mm
10:57 27 °C 20.3 °C 1015.1 hPa WSW 1.4 km/h 3.7 km/h 67 % 0 mm
11:02 27.3 °C 20.7 °C 1015.5 hPa North 0.8 km/h 7.4 km/h 67 % 0 mm
11:07 27.7 °C 20 °C 1015.5 hPa WNW 3.4 km/h 6.4 km/h 63 % 0 mm
11:12 27.9 °C 20.2 °C 1015.5 hPa NE 3.5 km/h 7.4 km/h 63 % 0 mm
11:17 28.3 °C 20.3 °C 1015.5 hPa WNW 2.3 km/h 5.6 km/h 62 % 0 mm
11:22 28.6 °C 20.6 °C 1015.5 hPa West 0.2 km/h 1.9 km/h 62 % 0 mm
11:27 28.8 °C 19.7 °C 1015.5 hPa NW 4.2 km/h 9.3 km/h 58 % 0 mm
11:32 29.1 °C 19.9 °C 1015.5 hPa WNW 0.3 km/h 5.6 km/h 58 % 0 mm
11:37 29.2 °C 20.7 °C 1015.5 hPa North 1.4 km/h 5.6 km/h 60 % 0 mm
11:38 29.2 °C 20.4 °C 1015.5 hPa NW 2.3 km/h 5.6 km/h 59 % 0 mm
11:43 29.4 °C 20 °C 1015.5 hPa NNE 6.4 km/h 9.3 km/h 57 % 0 mm
11:48 29.5 °C 20.1 °C 1015.5 hPa NW 3.5 km/h 5.6 km/h 57 % 0 mm
11:53 29.6 °C 20.4 °C 1015.5 hPa WNW 3.2 km/h 5.6 km/h 58 % 0 mm
11:58 29.7 °C 18.8 °C 1015.5 hPa WNW 3.9 km/h 7.4 km/h 52 % 0 mm
12:03 29.7 °C 20.3 °C 1015.5 hPa West 1.3 km/h 3.7 km/h 57 % 0 mm
12:08 29.8 °C 19.4 °C 1015.5 hPa WSW 1.1 km/h 4.8 km/h 54 % 0 mm
12:13 29.8 °C 19.8 °C 1015.5 hPa WNW 5 km/h 5.6 km/h 55 % 0 mm
12:18 29.8 °C 20.1 °C 1015.5 hPa West 0.5 km/h 1.9 km/h 56 % 0 mm
12:23 30 °C 19.7 °C 1015.5 hPa NW 5.1 km/h 9.3 km/h 54 % 0 mm
12:28 30.1 °C 20.6 °C 1015.5 hPa WNW 4.2 km/h 5.6 km/h 57 % 0 mm
12:33 30.2 °C 19.8 °C 1015.5 hPa West 3.7 km/h 7.4 km/h 54 % 0 mm
12:38 30.2 °C 20.1 °C 1015.5 hPa NNE 3.7 km/h 7.4 km/h 55 % 0 mm
12:43 30.3 °C 20.5 °C 1015.5 hPa NNW 2.6 km/h 5.6 km/h 56 % 0 mm
12:48 30.4 °C 20.1 °C 1015.5 hPa North 2.3 km/h 4.8 km/h 54 % 0 mm
12:53 30.4 °C 19.8 °C 1015.5 hPa WNW 4.5 km/h 5.6 km/h 53 % 0 mm
12:58 30.4 °C 20.1 °C 1015.5 hPa WSW 4.3 km/h 11.1 km/h 54 % 0 mm
13:03 30.4 °C 20.6 °C 1015.5 hPa NNE 1.3 km/h 7.4 km/h 56 % 0 mm
13:09 30.4 °C 20.6 °C 1015.8 hPa SW 6.9 km/h 16.7 km/h 56 % 0 mm
13:14 30.3 °C 19.9 °C 1015.8 hPa WSW 2.7 km/h 7.4 km/h 54 % 0 mm
13:19 30.3 °C 20.2 °C 1015.8 hPa WSW 2.1 km/h 5.6 km/h 55 % 0 mm
13:24 30.3 °C 20.2 °C 1015.8 hPa NW 4.2 km/h 7.4 km/h 55 % 0 mm
13:27 30.3 °C 21.1 °C 1015.8 hPa WSW 2.9 km/h 5.6 km/h 58 % 0 mm
13:32 30.2 °C 19.6 °C 1015.8 hPa SSW 5.3 km/h 11.1 km/h 53 % 0 mm
13:37 30.2 °C 19.9 °C 1015.8 hPa West 1.9 km/h 11.1 km/h 54 % 0 mm
13:43 30.3 °C 19.9 °C 1015.8 hPa WSW 5.8 km/h 18.5 km/h 54 % 0 mm
13:48 30.3 °C 19.9 °C 1015.8 hPa West 6.1 km/h 11.1 km/h 54 % 0 mm
13:53 30.3 °C 20.2 °C 1015.8 hPa SW 5.5 km/h 9.7 km/h 55 % 0 mm
13:58 30.2 °C 19.9 °C 1015.8 hPa WNW 4.8 km/h 9.7 km/h 54 % 0 mm
14:03 30.3 °C 20.5 °C 1015.8 hPa WNW 1.9 km/h 6.4 km/h 56 % 0 mm
14:08 30.2 °C 19.3 °C 1015.8 hPa WNW 8.5 km/h 14.8 km/h 52 % 0 mm
14:13 30.2 °C 19.9 °C 1015.8 hPa WSW 2.1 km/h 9.7 km/h 54 % 0 mm
14:18 30.2 °C 19.2 °C 1015.8 hPa NW 7.6 km/h 13 km/h 52 % 0 mm
14:23 30.1 °C 20.1 °C 1015.8 hPa West 1.9 km/h 14.8 km/h 55 % 0 mm
14:28 30.1 °C 18.8 °C 1015.8 hPa WNW 8.7 km/h 11.1 km/h 51 % 0 mm
14:33 29.9 °C 19 °C 1015.8 hPa West 10.6 km/h 10.6 km/h 52 % 0 mm
14:38 29.8 °C 19.8 °C 1015.8 hPa WSW 5.1 km/h 11.3 km/h 55 % 0 mm
14:43 29.8 °C 18.9 °C 1015.8 hPa WNW 9.2 km/h 14.8 km/h 52 % 0 mm
14:48 29.7 °C 18.4 °C 1015.8 hPa WNW 6.8 km/h 14.8 km/h 51 % 0 mm
14:54 29.6 °C 18.7 °C 1015.8 hPa North 8.9 km/h 14.8 km/h 52 % 0 mm
14:55 29.6 °C 19.3 °C 1015.8 hPa WNW 4 km/h 8 km/h 54 % 0 mm
15:00 29.6 °C 19 °C 1015.8 hPa WNW 7.7 km/h 14.8 km/h 53 % 0 mm
15:05 29.6 °C 19 °C 1015.8 hPa WNW 4.2 km/h 8 km/h 53 % 0 mm
15:10 29.6 °C 18.7 °C 1015.5 hPa West 4.8 km/h 11.3 km/h 52 % 0 mm
15:15 29.6 °C 18.1 °C 1015.5 hPa SW 11.9 km/h 20.4 km/h 50 % 0 mm
15:20 29.5 °C 18.3 °C 1015.8 hPa SW 8.2 km/h 13 km/h 51 % 0 mm
15:21 29.6 °C 18.3 °C 1015.8 hPa West 8 km/h 12.9 km/h 51 % 0 mm
15:26 29.5 °C 18.9 °C 1015.5 hPa West 4.8 km/h 14.5 km/h 53 % 0 mm
15:28 29.5 °C 18.9 °C 1015.8 hPa WSW 6.3 km/h 9.3 km/h 53 % 0 mm
15:33 29.6 °C 18.3 °C 1015.5 hPa SW 4.7 km/h 11.1 km/h 51 % 0 mm
15:38 29.6 °C 18.3 °C 1015.8 hPa WNW 7.6 km/h 13 km/h 51 % 0 mm
15:43 29.6 °C 18.7 °C 1015.5 hPa NW 7.1 km/h 11.1 km/h 52 % 0 mm
15:49 29.6 °C 18.7 °C 1015.5 hPa NW 6.8 km/h 8 km/h 52 % 0 mm
15:54 29.7 °C 19.4 °C 1015.5 hPa WNW 3.5 km/h 9.7 km/h 54 % 0 mm
15:59 29.7 °C 18.8 °C 1015.5 hPa North 4.7 km/h 13 km/h 52 % 0 mm
16:04 29.7 °C 18.1 °C 1015.8 hPa West 5.5 km/h 14.8 km/h 50 % 0 mm
16:09 29.7 °C 18.1 °C 1015.5 hPa SW 8.2 km/h 14.8 km/h 50 % 0 mm
16:14 29.7 °C 19.4 °C 1015.8 hPa NW 2.6 km/h 6.4 km/h 54 % 0 mm
16:19 29.7 °C 18.1 °C 1015.8 hPa WNW 4.8 km/h 13 km/h 50 % 0 mm
16:24 29.7 °C 18.1 °C 1015.8 hPa West 6.1 km/h 9.3 km/h 50 % 0 mm
16:29 29.7 °C 18.8 °C 1015.8 hPa NNE 1 km/h 9.3 km/h 52 % 0 mm
16:34 29.7 °C 18.4 °C 1015.8 hPa NW 6.6 km/h 13 km/h 51 % 0 mm
16:39 29.6 °C 18.1 °C 1015.8 hPa West 5.1 km/h 5.6 km/h 50 % 0 mm
16:44 29.6 °C 18.7 °C 1015.8 hPa WNW 1.8 km/h 5.6 km/h 52 % 0 mm
16:49 29.7 °C 18.4 °C 1015.8 hPa West 7.1 km/h 11.1 km/h 51 % 0 mm
16:54 29.6 °C 18.7 °C 1015.8 hPa WNW 4.3 km/h 6.4 km/h 52 % 0 mm
16:59 29.5 °C 18.9 °C 1015.8 hPa Calm   1.9 km/h 53 % 0 mm
17:04 29.4 °C 18.2 °C 1015.8 hPa NW 1.6 km/h 13 km/h 51 % 0 mm
17:09 29.3 °C 17.4 °C 1015.8 hPa WNW 5.3 km/h 7.4 km/h 49 % 0 mm
17:14 29.2 °C 18 °C 1015.8 hPa WNW 1.4 km/h 5.6 km/h 51 % 0 mm
17:19 29.1 °C 18.3 °C 1015.8 hPa WNW 5.3 km/h 7.4 km/h 52 % 0 mm
17:24 29.1 °C 18.8 °C 1015.8 hPa WNW 5 km/h 9.3 km/h 54 % 0 mm
17:29 28.9 °C 18.4 °C 1015.8 hPa NW 3.7 km/h 7.4 km/h 53 % 0 mm
17:34 28.8 °C 18 °C 1015.8 hPa NW 6.3 km/h 9.3 km/h 52 % 0 mm
17:39 28.7 °C 18.5 °C 1015.8 hPa WNW 1.6 km/h 7.4 km/h 54 % 0 mm
17:44 28.6 °C 18.4 °C 1016.1 hPa Calm   1.6 km/h 54 % 0 mm
17:49 28.5 °C 18.6 °C 1016.1 hPa WNW 1.6 km/h 5.6 km/h 55 % 0 mm
17:54 28.3 °C 18.4 °C 1016.1 hPa NNW 1.1 km/h 9.3 km/h 55 % 0 mm
17:59 28.2 °C 18.6 °C 1016.1 hPa WNW 0.8 km/h 4.8 km/h 56 % 0 mm
18:04 28.1 °C 18.4 °C 1016.1 hPa NNW 0.3 km/h 1.9 km/h 56 % 0 mm
18:09 27.9 °C 18 °C 1016.1 hPa NW 2.6 km/h 7.4 km/h 55 % 0 mm
18:14 27.8 °C 17.9 °C 1015.8 hPa West 3.7 km/h 7.4 km/h 55 % 0 mm
18:19 27.7 °C 18.1 °C 1016.1 hPa WNW 1.9 km/h 5.6 km/h 56 % 0 mm
18:24 27.6 °C 18.3 °C 1016.1 hPa WNW 0.3 km/h 3.7 km/h 57 % 0 mm
18:29 27.5 °C 18.8 °C 1016.1 hPa WNW 0.5 km/h 3.7 km/h 59 % 0 mm
18:34 27.4 °C 18.7 °C 1016.1 hPa WNW 1.1 km/h 3.7 km/h 59 % 0 mm
18:39 27.2 °C 18.5 °C 1016.1 hPa WNW 1 km/h 3.7 km/h 59 % 0 mm
18:45 27.1 °C 18.1 °C 1016.1 hPa Calm   5.6 km/h 58 % 0 mm
18:51 27 °C 18.1 °C 1016.1 hPa WNW 3.4 km/h 5.6 km/h 58 % 0 mm
18:56 26.9 °C 18.2 °C 1016.1 hPa Calm   1.9 km/h 59 % 0 mm
19:05 26.7 °C 18.1 °C 1016.5 hPa WNW 1.6 km/h 4.8 km/h 59 % 0 mm
19:16 26.6 °C 17.9 °C 1016.5 hPa WNW 1.6 km/h 4.8 km/h 59 % 0 mm
19:21 26.3 °C 17.6 °C 1016.5 hPa Calm     59 % 0 mm
19:26 26.2 °C 17.8 °C 1016.5 hPa Calm     60 % 0 mm
19:31 26 °C 17.9 °C 1016.8 hPa Calm   1.9 km/h 61 % 0 mm
19:36 25.9 °C 18.1 °C 1016.5 hPa Calm     62 % 0 mm
19:41 25.7 °C 18.4 °C 1016.8 hPa West 0.2 km/h 1.9 km/h 64 % 0 mm
19:46 25.6 °C 18.6 °C 1016.8 hPa West 1.8 km/h 3.7 km/h 65 % 0 mm
19:51 25.4 °C 18.6 °C 1016.8 hPa West 2.4 km/h 3.7 km/h 66 % 0 mm
19:56 25.3 °C 18.4 °C 1016.8 hPa West 1.3 km/h 1.9 km/h 66 % 0 mm
20:01 25.1 °C 18.3 °C 1016.8 hPa West 0.5 km/h 1.9 km/h 66 % 0 mm
20:06 24.9 °C 18.2 °C 1016.8 hPa West 0.6 km/h 1.9 km/h 66 % 0 mm
20:11 24.8 °C 18.2 °C 1016.8 hPa Calm   1.9 km/h 67 % 0 mm
20:16 24.6 °C 18.1 °C 1016.8 hPa West 0.8 km/h 3.7 km/h 67 % 0 mm
20:21 24.5 °C 18.7 °C 1016.8 hPa Calm     70 % 0 mm
20:26 24.3 °C 18.5 °C 1016.8 hPa Calm     70 % 0 mm
20:28 24.3 °C 18.4 °C 1016.8 hPa Calm   5.6 km/h 70 % 0 mm
20:33 24.1 °C 18.5 °C 1017.2 hPa Calm     71 % 0 mm
20:38 23.9 °C 18.4 °C 1017.2 hPa Calm     71 % 0 mm
20:43 23.8 °C 18.5 °C 1017.2 hPa Calm     72 % 0 mm
20:48 23.7 °C 18.3 °C 1017.5 hPa Calm     72 % 0 mm
20:53 23.5 °C 18.4 °C 1017.5 hPa Calm   1.9 km/h 73 % 0 mm
20:58 23.3 °C 18.2 °C 1017.5 hPa West 0.3 km/h 1.6 km/h 73 % 0 mm
21:03 23.2 °C 18.1 °C 1017.5 hPa West 0.2 km/h 1.9 km/h 73 % 0 mm
21:08 23.1 °C 17.9 °C 1017.5 hPa Calm     73 % 0 mm
21:13 22.9 °C 17.8 °C 1017.8 hPa West 1 km/h 3.7 km/h 73 % 0 mm
21:18 22.8 °C 17.9 °C 1017.8 hPa West 0.6 km/h 5.6 km/h 74 % 0 mm
21:23 22.7 °C 17.8 °C 1017.8 hPa West 0.3 km/h 3.7 km/h 74 % 0 mm
21:29 22.6 °C 17.7 °C 1017.8 hPa West 0.3 km/h 3.7 km/h 74 % 0 mm
21:34 22.5 °C 17.8 °C 1017.8 hPa WSW 1 km/h 1.9 km/h 75 % 0 mm
21:39 22.4 °C 18 °C 1017.8 hPa Calm     76 % 0 mm
21:44 22.4 °C 17.9 °C 1018.2 hPa Calm     76 % 0 mm
21:49 22.3 °C 17.9 °C 1018.2 hPa Calm     76 % 0 mm
21:54 22.3 °C 17.9 °C 1018.2 hPa Calm     76 % 0 mm
21:59 22.3 °C 18.1 °C 1018.5 hPa Calm     77 % 0 mm
22:04 22.2 °C 18 °C 1018.5 hPa Calm     77 % 0 mm
22:09 22.1 °C 17.9 °C 1018.5 hPa Calm     77 % 0 mm
22:14 22 °C 17.8 °C 1018.5 hPa Calm     77 % 0 mm
22:19 21.9 °C 17.7 °C 1018.5 hPa WSW 0.5 km/h 1.9 km/h 77 % 0 mm
22:24 21.8 °C 17.6 °C 1018.5 hPa WSW 0.2 km/h 5.6 km/h 77 % 0 mm
22:29 21.8 °C 17.6 °C 1018.5 hPa Calm   1.9 km/h 77 % 0 mm
22:34 21.7 °C 17.5 °C 1018.2 hPa Calm     77 % 0 mm
22:39 21.7 °C 17.7 °C 1018.5 hPa Calm     78 % 0 mm
22:44 21.7 °C 17.7 °C 1018.5 hPa Calm     78 % 0 mm
22:49 21.7 °C 17.7 °C 1018.5 hPa Calm     78 % 0 mm
22:54 21.6 °C 17.6 °C 1018.5 hPa Calm     78 % 0 mm
22:59 21.5 °C 17.5 °C 1018.5 hPa Calm   1.9 km/h 78 % 0 mm
23:04 21.4 °C 17.4 °C 1018.5 hPa Calm     78 % 0 mm
23:09 21.3 °C 17.6 °C 1018.8 hPa Calm     79 % 0 mm
23:14 21.3 °C 17.5 °C 1018.8 hPa WSW 0.3 km/h 1.9 km/h 79 % 0 mm
23:19 21.2 °C 17.4 °C 1018.8 hPa WSW 0.2 km/h 1.9 km/h 79 % 0 mm
23:24 21.1 °C 17.3 °C 1018.8 hPa WSW 0.3 km/h 1.9 km/h 79 % 0 mm
23:29 21 °C 17.2 °C 1018.8 hPa Calm   1.6 km/h 79 % 0 mm
23:35 20.9 °C 17.2 °C 1018.8 hPa Calm     79 % 0 mm
23:40 20.9 °C 17.4 °C 1018.8 hPa Calm     80 % 0 mm
23:45 20.9 °C 17.3 °C 1019.2 hPa WSW 0.2 km/h 1.9 km/h 80 % 0 mm
23:50 20.8 °C 17.4 °C 1019.2 hPa Calm     81 % 0 mm
23:55 20.8 °C 17.4 °C 1019.2 hPa WSW 1 km/h 5.6 km/h 81 % 0 mm
Crab Meadow Weather
Compliments of Weather Underground - 3 mb

Script developed by  Jim McMurry - jmcmurry@mwt.net Adapted for the template by  Wim van der Kuil - Leuven-Template.eu

Astronomy: One day on Uranus is 18 hours